Home   Weather   Calw   Past weeks
Flag for Germany

Past Weather in Calw, Baden-Württemberg, Germany — Yesterday and Last 2 Weeks

Now
46 °F

Passing clouds.


Feels Like: 42 °F
Forecast: 50 / 42 °F
Wind: 9 mph from Southwest

Location: Stuttgart-Echterdingen

Current Time: Dec 14, 2019 at 7:45:14 pm

Latest Report: Dec 14, 2019 at 6:50 pm


Visibility: N/A

Pressure: 29.62 "Hg

Humidity: 53%

Dew Point: 30 °F

Location of CalwLocation

Past Weather in Calw — Graph

°F

Calw Temperature Yesterday

Maximum temperature yesterday: 43 °F (at 12:50 pm)
Minimum temperature yesterday: 30 °F (at 12:50 am)
Average temperature yesterday: 37 °F

High & Low Weather Summary for the Past Weeks

 TemperatureHumidityPressure
High52 °F (Dec 8, 11:50 am)100% (Dec 5, 5:50 am)30.39 "Hg (Dec 5, 5:50 am)
Low19 °F (Dec 6, 5:50 am)53% (Dec 10, 1:20 pm)28.88 "Hg (Dec 13, 8:20 am)
Average37 °F81%29.94 "Hg
* Reported Nov 29 6:20 pm — Dec 14 6:50 pm, Calw. Weather by CustomWeather, © 2019

Note: Actual official high and low records may vary slightly from our data, if they occured in-between our weather recording intervals... More about our weather records

Calw Weather History for the Previous 24 Hours

Scroll right to see more
 ConditionsComfort  
Time TempWeatherWind HumidityBarometerVisibility
6:50 pm
Sat, Dec 14
46 °FPassing clouds.9 mph53%29.62 "HgN/A
6:20 pm46 °FPassing clouds.10 mph53%29.62 "HgN/A
5:50 pm46 °FPassing clouds.12 mph53%29.59 "HgN/A
5:20 pm45 °FPassing clouds.12 mph57%29.59 "HgN/A
4:50 pm45 °FClear.15 mph57%29.59 "Hg10 mi
4:20 pm45 °FSunny.12 mph61%29.59 "Hg10 mi
3:50 pm45 °FSunny.10 mph66%29.59 "Hg10 mi
3:20 pm46 °FPassing clouds.12 mph62%29.59 "HgN/A
2:50 pm46 °FPassing clouds.12 mph62%29.59 "HgN/A
2:20 pm46 °FPassing clouds.20 mph57%29.56 "HgN/A
1:50 pm46 °FPassing clouds.22 mph62%29.56 "HgN/A
12:50 pm45 °FPartly sunny.23 mph76%29.50 "HgN/A
12:20 pm45 °FLight rain. Partly sunny.10 mph81%29.47 "HgN/A
11:50 am45 °FLight rain. Partly sunny.15 mph81%29.47 "HgN/A
11:20 am46 °FScattered clouds.18 mph71%29.45 "HgN/A
10:50 am45 °FScattered clouds.18 mph76%29.45 "HgN/A
10:20 am45 °FScattered clouds.24 mph81%29.42 "HgN/A
9:50 am45 °FLight rain. Broken clouds.25 mph76%29.39 "HgN/A
9:20 am45 °FLight rain. Scattered clouds.22 mph81%29.33 "Hg5 mi
8:50 am45 °FLight rain. Scattered clouds.22 mph81%29.30 "HgN/A
8:20 am46 °FLight rain. Broken clouds.18 mph76%29.27 "HgN/A
7:50 am45 °FPartly cloudy.15 mph76%29.24 "HgN/A
7:20 am43 °FLight rain. Passing clouds.13 mph81%29.21 "HgN/A
6:50 am41 °FLight rain. Passing clouds.9 mph87%29.21 "HgN/A
6:20 am39 °FLight rain. Passing clouds.10 mph87%29.18 "HgN/A
5:50 am39 °FLight rain. Passing clouds.12 mph81%29.18 "HgN/A
5:20 am39 °FPassing clouds.13 mph81%29.18 "HgN/A
4:50 am39 °FLight rain. Passing clouds.14 mph81%29.21 "HgN/A
4:20 am39 °FLight rain. Passing clouds.15 mph75%29.24 "HgN/A
3:50 am39 °FPassing clouds.10 mph75%29.24 "HgN/A
3:20 am39 °FLight rain. Passing clouds.14 mph75%29.27 "HgN/A
2:50 am39 °FPassing clouds.12 mph75%29.27 "HgN/A
2:20 am39 °FPassing clouds.8 mph75%29.30 "HgN/A
1:50 am39 °FPassing clouds.8 mph75%29.30 "HgN/A
1:20 am37 °FPassing clouds.7 mph87%29.27 "HgN/A
12:50 am39 °FPassing clouds.7 mph81%29.30 "HgN/A
12:20 am39 °FPassing clouds.9 mph81%29.33 "HgN/A
11:50 pm
Fri, Dec 13
39 °FPassing clouds.10 mph81%29.33 "HgN/A
11:20 pm39 °FPassing clouds.8 mph87%29.33 "HgN/A
10:50 pm39 °FLight rain. Partly cloudy.9 mph87%29.33 "HgN/A
10:20 pm39 °FLight rain. Partly cloudy.9 mph87%29.30 "HgN/A
9:50 pm39 °FLight rain. Passing clouds.10 mph87%29.30 "HgN/A
9:20 pm39 °FLight rain. Passing clouds.9 mph87%29.27 "HgN/A
8:50 pm37 °FLight rain. Partly cloudy.9 mph93%29.24 "HgN/A
8:20 pm37 °FLight rain. Passing clouds.14 mph93%29.24 "HgN/A
7:50 pm37 °FLight rain. Passing clouds.13 mph93%29.21 "HgN/A
7:20 pm37 °FRain. Partly cloudy.13 mph93%29.18 "HgN/A
Weather by CustomWeather, © 2019

See weather overview

Advertising